Regional Weather Roundup
Issued by NWS

Home | Current Version | Previous Version | Text Only | Print | Product List | Glossary On
Versions: 1 2 3 4 5 6 7 8 9 10 11 12 13 14 15 16 17 18 19 20 21 22 23 24 25 26 27
000
ASUS42 KTBW 181916
RWRFL
FLORIDA REGIONAL WEATHER ROUNDUP
NATIONAL WEATHER SERVICE TAMPA BAY RUSKIN FL
300 PM EDT WED OCT 18 2017

NOTE: "FAIR" INDICATES FEW OR NO CLOUDS BELOW 12,000 FEET WITH NO
SIGNIFICANT WEATHER AND/OR OBSTRUCTIONS TO VISIBILITY.

FLZ001>010-012>015-112-114-115-182000-
PANHANDLE FLORIDA

CITY           SKY/WX    TMP DP  RH WIND       PRES   REMARKS
PENSACOLA      SUNNY     77  50  38 NE6       30.17F
PENSACOLA NAS  MOSUNNY   74  55  51 E6        30.16F
MILTON NAS     SUNNY     75  51  43 VRB3      30.17
CRESTVIEW      SUNNY     78  55  44 NE8       30.19F
DUKE FIELD     MOSUNNY   77  51  40 E7        30.17F
VALPARAISO     SUNNY     78  50  37 VRB5      30.16F
MARY ESTHER    SUNNY     77  52  41 E6        30.15F
PANAMA CITY    FAIR      79  55  43 NE7       30.15F
TYNDALL AFB    MOSUNNY   79  60  52 NE9       30.14F
APALACHICOLA   PTSUNNY   80  63  55 NE9       30.14F

STATION/POSITION SKY/WX   TEMP    WIND        PRES    WAVE   SWELL
                          AIR SEA DIR/SP/G            HT/PER HT/PER
                          (F)     (DEG/KT/KT) (MB)    (FT/S) (FT/S)
30.1N   87.6W              69 79   50/ 10/ 14 1021.4F   3/ 6   3/ 6
29.2N   88.2W              75 82   50/ 14/ 16 1020.5
28.8N   86.0W              76 82   60/ 16/ 19 1019.4F   5/ 6
PANAMA CITY BEAC           76 78   60/  8/ 12 1021.5F
TOWER C                    72      60/ 20/ 22 1020.6F
28.5N   84.5W              76 81   60/ 17/ 23 1018.4F   6/ 6

$$
FLZ011-016>038-118-127-128-134-139-239-182000-
NORTH FLORIDA

CITY           SKY/WX    TMP DP  RH WIND       PRES   REMARKS
MARIANNA       SUNNY     77  56  48 NE13G20   30.17F
TALLAHASSEE    MOSUNNY   79  60  52 NE3       30.16F
LIVE OAK       PTSUNNY   82  64  54 NE8G15    30.16F
CROSS CITY     PTSUNNY   82  66  57 NE13G20   30.16F
LAKE CITY      CLOUDY    81  68  65 NE8       30.15F
GAINESVILLE    CLOUDY    80  63  55 NE15      30.15F
WILLISTON      SUNNY     84  68  58 NE12      30.11F
PALATKA        FAIR      81  63  54 NE14      30.14F
MAYPORT NAS    CLOUDY    78  70  76 NE17G26   30.16F
JACKSONVILLE   MOSUNNY   79  67  66 NE20G28   30.17F
JAX NAS        PTSUNNY   80  67  64 NE17G25   30.16F
JAX CECIL      PTSUNNY   81  68  65 NE13G25   30.16F
ST AUGUSTINE   MOSUNNY   80  67  64 NE16G25   30.16F
PALM COAST     SUNNY     81  63  54 NE15G23   30.13F

STATION/POSITION SKY/WX   TEMP    WIND        PRES    WAVE   SWELL
                          AIR SEA DIR/SP/G            HT/PER HT/PER
                          (F)     (DEG/KT/KT) (MB)    (FT/S) (FT/S)
SHELL POINT      NOT AVBL
KEATON BEACH               79      70/  7/  9 1019.7F
CEDAR KEY                  79      60/ 12/ 13 1019.2F
FERNANDINA                 74 75  360/ 14/ 19 1022.8F
30.7N   81.3W                 78                N/A     7/ 7   2/11
MAYPORT                    75 78   30/ 18/ 21 1022.0F
31.4N   80.9W              72 78   50/ 19/ 23 1022.3F   7/ 8
ST AUGUSTINE               77 79   30/ 20/ 22 1020.8F

$$
FLZ040-043>046-052-053-057-058-063-144-182000-
INTERIOR CENTRAL FLORIDA

CITY           SKY/WX    TMP DP  RH WIND       PRES   REMARKS
OCALA          CLOUDY    82  65  56 E10G21    30.11F
THE VILLAGES     N/A     82  66  57 N12G20    30.00F
LEESBURG       MOSUNNY   83  64  52 NE17G25   30.11F
SANFORD        CLOUDY    80  66  62 NE15      30.09F
ORLANDO INTL   CLOUDY    77  73  87 N15       30.08F
KISSIMMEE      PTSUNNY   80  71  74 NE15G21   30.08F
WINTER HAVEN     N/A    N/A N/A N/A MISG      30.08F
LAKELAND       PTSUNNY   82  72  69 NE20      30.07F
SEBRING        FAIR      83  70  64 NE18G26   30.05S
OKEECHOBEE     CLOUDY    79  72  78 NE14      30.03F

$$
FLZ041-047-054-059-064-141-147-182000-
EAST CENTRAL FLORIDA

CITY           SKY/WX    TMP DP  RH WIND       PRES   REMARKS
ORMOND BEACH   MOSUNNY   82  64  54 NE17G23   30.13S
DAYTONA BEACH  PTSUNNY   82  67  60 NE18G24   30.11F
DELAND         PTSUNNY   81  64  57 NE10G22   30.11F
NEW SMYRNA BEA MOSUNNY   82  66  57 NE16G29   30.12F
JFK SPACE CTR  MOSUNNY   81  73  75 NE16G23   30.07F
TITUSVILLE     PTSUNNY   84  70  61 NE17G29   30.08
CAPE CANAVERAL MOSUNNY   82  70  66 NE20G25   30.06F
PATRICK AFB    PTSUNNY   81  72  74 NE21G29   30.05F
MELBOURNE      NOT AVBL
VERO BEACH     CLOUDY    80  72  76 NE17      30.04F
FT PIERCE      PTSUNNY   81  73  76 NE8G18    30.03F
STUART         PTSUNNY   84  73  70 NE17G28   30.04

STATION/POSITION SKY/WX   TEMP    WIND        PRES    WAVE   SWELL
                          AIR SEA DIR/SP/G            HT/PER HT/PER
                          (F)     (DEG/KT/KT) (MB)    (FT/S) (FT/S)
28.5N   80.2W              80 83   40/ 21/ 27 1017.7F   9/ 9   7/ 9
TRIDENT PIER               81 81   30/ 16/ 24 1019.8F
28.4N   80.5W                 81                N/A     5/ 6   2/11
27.5N   80.2W                 81                N/A     6/11   2/11

$$
FLZ050-056-061-142-242-148-248-149-249-151-251-155-255-
160-260-182000-
WEST CENTRAL FLORIDA

CITY           SKY/WX    TMP DP  RH WIND       PRES   REMARKS
CRYSTAL RIVER  FAIR      82  64  54 E12G21    30.09F
INVERNESS      PTSUNNY   82  68  61 E10G21    30.10F
BROOKSVILLE    CLOUDY    82  68  62 NE14G21   30.08F
CLEARWATER AIR PTSUNNY   81  68  65 E9G18     30.04F
ST PETE CLEARW CLOUDY    84  71  65 E12       30.05F
TAMPA INTL     CLOUDY    83  68  60 NE10G24   30.06F
TAMPA EXEC     CLOUDY    86  73  66 E10       30.06F
PLANT CITY     CLOUDY    81  70  69 NE18G25   30.08F
MACDILL AFB    PTSUNNY   82  68  61 NE9G16    30.05F
PETER O KNIGHT CLOUDY    81  70  69 E18G25    30.05F
ST PETERSBURG  CLOUDY    79  72  79 NE18      30.03F
SARASOTA       SUNNY     85  69  58 E17G24    30.00F
VENICE         FAIR      86  70  58 E15       30.01F

STATION/POSITION SKY/WX   TEMP    WIND        PRES    WAVE   SWELL
                          AIR SEA DIR/SP/G            HT/PER HT/PER
                          (F)     (DEG/KT/KT) (MB)    (FT/S) (FT/S)
CLEARWATER BEACH           81 80   40/ 13/ 17 1017.7F
MIDDLE TAMPA BAY           81      70/ 14/ 17 1017.5F
VENICE                     85 82   80/  9/ 12 1016.3F

$$
FLZ066-069-070-075>078-162-262-165-265-182000-
SOUTHWEST FLORIDA AND KEYS

CITY           SKY/WX    TMP DP  RH WIND       PRES   REMARKS
PUNTA GORDA    MOSUNNY   87  69  54 NE16      30.02F
FT MYERS       PTSUNNY   84  70  62 NE10      30.00F
SOUTHWEST INTL PTSUNNY   86  70  58 E15G22    30.00F
NAPLES         MOSUNNY   86  71  60 NE14      29.99F
MARCO ISLAND     N/A     86  72  62 N7        30.00F
IMMOKALEE      FAIR      88  72  58 NE13G20   30.02S
MARATHON       CLOUDY    81  73  76 SE9       29.98F
KEY WEST NAS   CLOUDY    81  77  88 E8        29.98F
KEY WEST INTL  CLOUDY    82  73  74 E10       29.98F

STATION/POSITION SKY/WX   TEMP    WIND        PRES    WAVE   SWELL
                          AIR SEA DIR/SP/G            HT/PER HT/PER
                          (F)     (DEG/KT/KT) (MB)    (FT/S) (FT/S)
NAPLES                        83   40/  5/ 12 1015.8F
DRY TORTUGAS               80      70/ 14/ 16 1015.4F
SAND KEY                   80                 1015.8F
MOLASSES REEF              80 84   20/ 14/ 15 1015.5F

$$
FLZ067-068-071>074-168-172>174-182000-
SOUTHEAST FLORIDA

CITY           SKY/WX    TMP DP  RH WIND       PRES   REMARKS
W PALM BEACH   CLOUDY    83  72  69 NE13      30.00F
BOCA RATON     MOSUNNY   82  73  74 NE8       30.00F
FT LAUDER-EXEC CLOUDY    84  73  69 NE6       29.99F
FT LAUDERDALE  CLOUDY    84  76  76 VRB7      29.98F
POMPANO BEACH  CLOUDY    84  74  71 NE12      29.99F
PEMBROKE PINES CLOUDY    85  73  67 NE8       30.00F
OPA LOCKA      CLOUDY    84  75  74 NE10      29.99F
MIAMI          CLOUDY    86  72  62 N7        29.99F
WEST KENDALL   CLOUDY    82  75  79 S5        29.99F
HOMESTEAD      CLOUDY    79  75  86 S3        29.99F

STATION/POSITION SKY/WX   TEMP    WIND        PRES    WAVE   SWELL
                          AIR SEA DIR/SP/G            HT/PER HT/PER
                          (F)     (DEG/KT/KT) (MB)    (FT/S) (FT/S)
PORT EVERGLADES            82      50/  6/ 10 1015.6F
VIRGINIA KEY               82 84   40/  5/  7 1015.4F
LAKE WORTH                 81 84   50/ 10/ 13 1017.1F
FOWEY ROCKS                81 83   30/  3/  3 1016.1F
SETTLEMENT POINT           82      80/  2/  2 1015.9F

$$





USA.gov is the U.S. government's official web portal to all federal, state and local government web resources and services.